Location: St Paul
(33.9360°N, 83.4200°W)
Time: 19:08:08
(UTC-04:00)

Atlas Centaur 2 - Pass Details

Date: 06 October 2017
Orbit: 459 x 1313 km, 30.4° (Epoch: 21 October)

Event Time Altitude Azimuth Distance (km) Brightness Sun altitude
Rises 22:14:13 0° 241° (WSW) 3,735 6.0 -38.2°
Reaches altitude 10° 22:16:48 10° 236° (WSW) 2,899 5.3 -38.7°
Enters shadow 22:19:19 24° 227° (SW) 2,159 4.4 -39.2°
